GW0061 Weather Reports


Display with metric or nautical units.
time (UTC)temp
F
wind
direction
speed
MPH
gust
MPH
rain 1hr
in
rain 24hr
in
rain mn
in
humidity
%
barometer
mb
20260502233056 53 0 0.0 0.0 0.00 0.47 0.47 92 1011.8
20260502232547 53 0 0.0 0.0 0.00 0.47 0.47 92 1011.8
20260502232047 53 0 0.0 0.0 0.00 0.47 0.47 92 1011.9
20260502231559 53 0 0.0 0.0 0.00 0.47 0.47 92 1011.8
20260502231048 53 0 0.0 0.0 0.00 0.47 0.47 92 1011.8
20260502230547 53 0 0.0 0.0 0.00 0.47 0.47 92 1011.8
20260502230055 53 0 0.0 0.0 0.00 0.47 0.47 91 1011.8
20260502225546 53 0 0.0 0.0 0.00 0.47 0.47 91 1011.8
20260502225047 53 0 0.0 0.0 0.00 0.47 0.47 91 1011.7
20260502224552 53 0 0.0 0.0 0.00 0.47 0.47 91 1011.7
20260502224047 53 0 0.0 0.0 0.00 0.47 0.47 91 1011.7
20260502223547 53 0 0.0 0.0 0.00 0.47 0.47 91 1011.6
20260502223055 53 0 0.0 0.0 0.00 0.47 0.47 91 1011.7
20260502222549 53 0 0.0 0.0 0.00 0.47 0.47 91 1011.6
20260502222050 53 0 0.0 0.0 0.00 0.47 0.47 91 1011.5
20260502221555 53 0 0.0 0.0 0.00 0.47 0.47 90 1011.6
20260502221045 54 0 0.0 0.0 0.00 0.47 0.47 90 1011.6
20260502220547 54 0 0.0 0.0 0.00 0.47 0.47 91 1011.6
20260502220050 54 0 0.0 0.0 0.00 0.47 0.47 91 1011.4
20260502215547 54 0 0.0 0.0 0.01 0.47 0.47 91 1011.4
20260502215046 54 0 0.0 0.0 0.01 0.47 0.47 91 1011.3
20260502214555 54 0 0.0 0.0 0.01 0.47 0.47 91 1011.4
20260502214046 53 0 0.0 0.0 0.01 0.47 0.47 91 1011.4
20260502213544 54 0 0.0 0.0 0.01 0.47 0.47 90 1011.4
20260502213052 54 0 0.0 0.0 0.01 0.47 0.47 91 1011.4
20260502212544 54 0 0.0 0.0 0.01 0.47 0.47 91 1011.4
20260502212046 54 0 0.0 0.0 0.01 0.47 0.47 91 1011.6
20260502211555 54 0 0.0 0.0 0.02 0.47 0.47 91 1011.5
20260502211051 54 0 0.0 0.0 0.02 0.47 0.47 91 1011.5
20260502210550 54 0 0.0 5.0 0.02 0.47 0.47 91 1011.5
20260502210051 55 0 0.0 5.0 0.02 0.47 0.47 92 1011.5
20260502205547 55 0 0.0 5.0 0.01 0.46 0.46 92 1011.5
20260502205047 55 0 0.0 0.0 0.01 0.46 0.46 92 1011.2
20260502204549 55 0 0.0 0.0 0.01 0.46 0.46 92 1011.3
20260502204046 55 0 0.0 0.0 0.01 0.46 0.46 92 1011.3
20260502203547 54 0 0.0 0.0 0.01 0.46 0.46 92 1011.5
20260502203048 54 0 0.0 0.0 0.01 0.46 0.46 92 1011.5
20260502202546 54 0 0.0 5.0 0.02 0.46 0.46 92 1011.5
20260502202046 54 0 0.0 5.0 0.02 0.46 0.46 92 1011.4
20260502201559 54 0 0.0 6.0 0.01 0.45 0.45 92 1011.5
20260502201047 54 0 0.0 6.0 0.01 0.45 0.45 92 1011.5
20260502200550 55 0 0.0 5.0 0.02 0.45 0.45 92 1011.4
20260502200059 54 0 0.0 0.0 0.02 0.45 0.45 92 1011.5
20260502195546 54 0 0.0 0.0 0.03 0.45 0.45 92 1011.6
20260502195045 54 0 0.0 0.0 0.03 0.45 0.45 93 1011.6
20260502194554 54 0 0.0 0.0 0.03 0.45 0.45 92 1011.6
20260502194050 54 0 0.0 0.0 0.03 0.45 0.45 93 1011.6
20260502193545 54 0 0.0 0.0 0.04 0.45 0.45 93 1011.6
20260502193053 54 0 0.0 0.0 0.04 0.45 0.45 93 1011.8
20260502192547 53 0 0.0 0.0 0.03 0.44 0.44 93 1011.9
20260502192046 53 0 0.0 6.0 0.04 0.44 0.44 93 1012.1
20260502191559 53 0 0.0 6.0 0.04 0.44 0.44 92 1012.1
20260502191051 53 0 0.0 6.0 0.04 0.44 0.44 92 1012.1
20260502190548 53 0 0.0 6.0 0.03 0.43 0.43 92 1012.0
20260502190050 53 0 0.0 0.0 0.04 0.43 0.43 92 1012.1
20260502185550 53 0 0.0 0.0 0.03 0.44 0.42 92 1012.1
20260502185047 54 0 0.0 0.0 0.03 0.44 0.42 92 1012.0
20260502184547 54 0 0.0 0.0 0.03 0.44 0.42 92 1012.0
20260502184047 54 0 0.0 5.0 0.03 0.44 0.42 92 1011.8
20260502183547 54 0 0.0 5.0 0.02 0.43 0.41 92 1012.0
20260502183047 54 0 0.0 0.0 0.02 0.43 0.41 92 1011.8
20260502182547 54 0 0.0 0.0 0.02 0.43 0.41 92 1012.0
20260502182043 54 0 0.0 0.0 0.01 0.42 0.40 93 1012.4
20260502181551 54 0 0.0 0.0 0.01 0.42 0.40 92 1012.2
20260502181048 54 0 0.0 0.0 0.01 0.42 0.40 92 1012.0
20260502180548 54 0 0.0 0.0 0.01 0.42 0.40 92 1012.2
20260502164044 53 34 0.0 0.0 0.05 0.40 0.38 93 1013.1
20260502163547 53 0 0.0 0.0 0.05 0.39 0.37 93 1013.2
20260502163059 53 0 0.0 0.0 0.05 0.39 0.37 93 1013.3
20260502162547 53 0 0.0 0.0 0.04 0.38 0.36 93 1013.3
20260502162046 53 0 0.0 8.0 0.04 0.38 0.36 93 1013.5
20260502161554 53 0 1.0 8.0 0.04 0.37 0.35 93 1013.4
20260502161046 53 0 0.0 12.0 0.04 0.36 0.34 93 1013.6
20260502160546 53 0 0.0 12.0 0.05 0.36 0.34 93 1013.7
20260502152047 54 19 2.0 9.0 0.12 0.34 0.32 93 1012.8
20260502151556 54 0 1.0 9.0 0.11 0.33 0.31 94 1012.9
20260502151047 54 0 1.0 9.0 0.11 0.32 0.30 93 1013.0
20260502150547 54 0 0.0 0.0 0.11 0.31 0.29 94 1013.2
20260502150104 54 0 0.0 0.0 0.11 0.30 0.28 93 1013.2
20260502130546 54 0 0.0 0.0 0.04 0.15 0.13 93 1012.2
20260502130107 53 0 0.0 0.0 0.05 0.15 0.13 92 1012.1
20260502123544 53 0 0.0 0.0 0.06 0.13 0.11 92 1011.9
20260502123100 53 0 0.0 0.0 0.05 0.12 0.10 92 1012.0
20260502122543 53 0 0.0 0.0 0.06 0.12 0.10 92 1012.0
20260502122047 53 0 0.0 0.0 0.06 0.12 0.10 92 1011.9
20260502121558 53 0 0.0 0.0 0.05 0.11 0.09 92 1011.8
20260502121046 53 0 0.0 0.0 0.06 0.11 0.09 92 1011.7
20260502120547 53 0 0.0 0.0 0.06 0.11 0.09 91 1011.6
20260502115546 53 0 0.0 6.0 0.06 0.10 0.08 91 1011.7
20260502115049 53 0 0.0 6.0 0.06 0.09 0.07 91 1011.7
20260502114554 53 0 0.0 0.0 0.06 0.09 0.07 91 1011.7
20260502114047 53 0 0.0 8.0 0.06 0.08 0.06 91 1011.7
20260502113546 53 0 0.0 8.0 0.05 0.07 0.05 91 1011.7
20260502113052 54 0 0.0 8.0 0.05 0.07 0.05 91 1011.8
20260502112545 54 0 0.0 4.0 0.04 0.06 0.04 91 1011.9
20260502112045 54 0 0.0 4.0 0.04 0.06 0.04 91 1012.0
20260502111555 54 0 0.0 0.0 0.04 0.06 0.04 91 1011.9
20260502111042 54 0 0.0 0.0 0.03 0.05 0.03 90 1011.9
20260502110543 54 0 0.0 0.0 0.03 0.05 0.03 90 1011.9
20260502110057 54 0 0.0 0.0 0.02 0.04 0.02 90 1011.9
20260502105547 54 0 0.0 0.0 0.02 0.04 0.02 90 1011.8
20260502105047 54 0 0.0 0.0 0.01 0.03 0.01 91 1012.0
20260502104551 54 0 0.0 0.0 0.01 0.03 0.01 91 1012.0
20260502104046 54 0 0.0 0.0 0.00 0.02 0.00 91 1012.0
20260502103547 54 0 0.0 0.0 0.00 0.02 0.00 91 1011.9
20260502103054 54 0 0.0 0.0 0.00 0.02 0.00 91 1011.8
20260502102547 54 0 0.0 0.0 0.00 0.02 0.00 91 1011.7
20260502102044 54 0 0.0 0.0 0.00 0.02 0.00 91 1011.7
20260502101549 54 0 0.0 0.0 0.00 0.02 0.00 92 1011.6
20260502101048 53 0 0.0 0.0 0.00 0.02 0.00 92 1011.7
20260502100542 53 0 0.0 0.0 0.00 0.02 0.00 92 1011.7
20260502091047 53 0 0.0 0.0 0.00 0.02 0.00 92 1011.6
20260502090542 53 0 0.0 0.0 0.00 0.02 0.00 92 1011.6
20260502080104 53 0 0.0 0.0 0.00 0.02 0.00 92 1011.4
20260502071046 53 0 0.0 0.0 0.00 0.02 0.00 92 1011.3
20260502070546 53 0 0.0 0.0 0.00 0.02 0.00 92 1011.3
20260502070052 53 0 0.0 0.0 0.00 0.02 0.00 92 1011.3
20260502065545 53 0 0.0 0.0 0.00 0.02 0.00 92 1011.4
20260502065043 53 0 0.0 0.0 0.00 0.02 0.00 92 1011.5
20260502064550 53 0 0.0 0.0 0.00 0.02 0.00 92 1011.4
20260502064042 53 0 0.0 0.0 0.00 0.02 0.00 92 1011.4
20260502063542 53 0 0.0 0.0 0.00 0.02 0.00 92 1011.4
20260502063112 53 0 0.0 0.0 0.00 0.02 0.00 92 1011.5
20260502062543 53 0 0.0 0.0 0.00 0.02 0.00 92 1011.6
20260502062046 53 0 0.0 0.0 0.00 0.02 0.00 92 1011.7
20260502061550 53 0 0.0 0.0 0.00 0.02 0.00 92 1011.7
20260502061047 53 0 0.0 0.0 0.00 0.02 0.00 92 1011.8
20260502060546 52 0 0.0 0.0 0.00 0.02 0.00 92 1011.8
20260502060058 52 0 0.0 0.0 0.00 0.02 0.00 92 1012.0
20260502055547 52 0 0.0 0.0 0.00 0.02 0.00 92 1011.9
20260502055046 52 0 0.0 0.0 0.00 0.02 0.00 92 1012.0
20260502054551 52 0 0.0 0.0 0.00 0.02 0.00 92 1012.0
20260502054043 52 0 0.0 0.0 0.00 0.02 0.00 92 1012.0
20260502053542 52 0 0.0 0.0 0.00 0.02 0.00 92 1011.9
20260502053059 52 0 0.0 0.0 0.00 0.02 0.00 92 1012.0
20260502052548 52 0 0.0 0.0 0.00 0.02 0.00 92 1012.0
20260502052048 52 0 0.0 0.0 0.00 0.02 0.00 92 1012.2
20260502051548 52 0 0.0 0.0 0.00 0.02 0.00 92 1012.2
20260502051046 52 0 0.0 0.0 0.00 0.02 0.00 92 1012.3
20260502050547 52 0 0.0 0.0 0.00 0.02 0.00 92 1012.3
20260502050050 52 0 0.0 0.0 0.00 0.02 0.00 92 1012.3
20260502045546 52 0 0.0 0.0 0.00 0.02 0.00 92 1012.4
20260502045046 52 0 0.0 0.0 0.00 0.02 0.00 92 1012.4
20260502044548 52 0 0.0 0.0 0.00 0.02 0.00 92 1012.4
20260502044048 52 0 0.0 0.0 0.00 0.02 0.00 92 1012.3
20260502043545 52 0 0.0 0.0 0.00 0.02 0.00 92 1012.6
20260502043050 52 0 0.0 0.0 0.00 0.02 0.00 92 1012.8
20260502042542 52 0 0.0 0.0 0.00 0.02 0.00 92 1012.7
20260502042047 52 0 0.0 0.0 0.00 0.02 0.00 92 1012.6
20260502041556 52 0 0.0 0.0 0.00 0.02 0.00 92 1012.4
20260502041047 52 0 0.0 0.0 0.00 0.02 0.00 91 1012.5
20260502040547 52 0 0.0 0.0 0.00 0.02 0.00 91 1012.6
20260502035547 52 0 0.0 0.0 0.00 0.02 0.02 91 1012.5
20260502035046 52 0 0.0 0.0 0.00 0.02 0.02 91 1012.5
20260502034552 52 0 0.0 0.0 0.00 0.02 0.02 91 1012.6
20260502034046 52 0 0.0 0.0 0.00 0.02 0.02 91 1012.8
20260502033545 52 0 0.0 0.0 0.00 0.02 0.02 91 1012.9
20260502033051 52 0 0.0 0.0 0.00 0.02 0.02 91 1012.8
20260502032545 52 0 0.0 0.0 0.00 0.02 0.02 91 1012.9
20260502032044 51 0 0.0 0.0 0.00 0.02 0.02 91 1012.9
20260502031552 51 0 0.0 0.0 0.00 0.02 0.02 91 1013.0
20260502031042 51 0 0.0 0.0 0.00 0.02 0.02 91 1013.1
20260502030545 51 0 0.0 0.0 0.00 0.02 0.02 90 1013.1
20260502030052 51 0 0.0 0.0 0.00 0.02 0.02 90 1013.2
20260502025546 51 0 0.0 0.0 0.00 0.02 0.02 90 1013.1
20260502025049 51 0 0.0 0.0 0.00 0.02 0.02 90 1013.3
20260502024549 51 0 0.0 0.0 0.00 0.02 0.02 90 1013.2
20260502024044 51 0 0.0 0.0 0.00 0.02 0.02 90 1013.3
20260502023544 51 0 0.0 0.0 0.00 0.02 0.02 90 1013.2
20260502023054 51 0 0.0 0.0 0.00 0.02 0.02 89 1013.2
20260502022544 51 0 0.0 0.0 0.00 0.02 0.02 89 1013.1
20260502022046 52 0 0.0 0.0 0.00 0.02 0.02 89 1013.1
20260502021554 52 0 0.0 0.0 0.00 0.02 0.02 89 1013.1
20260502021044 52 0 0.0 0.0 0.00 0.02 0.02 89 1013.2
20260502020544 52 0 0.0 0.0 0.00 0.02 0.02 89 1013.2
20260502020052 52 0 0.0 0.0 0.00 0.02 0.02 88 1013.1
20260502015544 52 0 0.0 0.0 0.00 0.02 0.02 88 1013.2
20260502015045 52 0 0.0 0.0 0.00 0.02 0.02 88 1013.3
20260502014551 52 0 0.0 0.0 0.00 0.02 0.02 87 1013.2
20260502014044 52 0 0.0 0.0 0.00 0.02 0.02 87 1013.3
20260502013548 52 0 0.0 0.0 0.00 0.02 0.02 87 1013.2
20260502013050 53 0 0.0 0.0 0.00 0.02 0.02 86 1013.3
20260502012544 53 0 0.0 0.0 0.00 0.02 0.02 86 1013.4
20260502012045 53 0 0.0 0.0 0.00 0.02 0.02 86 1013.2
20260502011551 53 0 0.0 0.0 0.00 0.02 0.02 85 1013.1
20260502011046 53 0 0.0 0.0 0.00 0.02 0.02 85 1012.9
20260502010545 54 0 0.0 0.0 0.00 0.02 0.02 85 1012.9
20260502010050 54 0 0.0 0.0 0.00 0.02 0.02 85 1013.0
20260502005544 54 0 0.0 0.0 0.00 0.02 0.02 85 1013.2
20260502005045 54 0 0.0 0.0 0.00 0.02 0.02 84 1013.0
20260502004549 54 0 0.0 0.0 0.00 0.02 0.02 84 1012.9
20260502004047 55 0 0.0 0.0 0.00 0.02 0.02 84 1012.8
20260502003543 55 0 0.0 0.0 0.00 0.02 0.02 84 1012.6
20260502003052 55 0 0.0 0.0 0.00 0.02 0.02 84 1012.4
20260502002543 55 0 0.0 0.0 0.00 0.02 0.02 83 1012.5
20260502002044 55 0 0.0 0.0 0.00 0.02 0.02 83 1012.5
20260502001555 55 0 0.0 0.0 0.00 0.02 0.02 83 1012.5
20260502001044 55 0 0.0 0.0 0.00 0.02 0.02 83 1012.6
20260502000544 56 0 0.0 0.0 0.00 0.02 0.02 83 1012.6
20260502000100 56 0 0.0 0.0 0.00 0.02 0.02 83 1012.8
20260501235544 56 0 0.0 0.0 0.00 0.02 0.02 83 1012.7
20260501235046 56 0 0.0 0.0 0.00 0.02 0.02 82 1012.7
20260501234554 56 0 0.0 0.0 0.00 0.02 0.02 81 1012.7
20260501234044 56 0 0.0 0.0 0.00 0.02 0.02 79 1012.8